GW0118 Weather Reports


time (UTC)temp
C
wind
direction
speed
KPH
gust
KPH
rain 1hr
cm
rain 24hr
cm
rain mn
cm
humidity
%
barometer
mb
20260901231603 17 120 0.0 1.6 0.00 0.00 0.00 50 1024.3
20260901230139 17 359 0.0 1.6 0.00 0.00 0.00 48 1024.2
20260901224605 18 0 0.0 0.0 0.00 0.00 0.00 47 1024.0
20260901223119 18 0 0.0 1.6 0.00 0.00 0.00 46 1023.7
20260901221600 18 0 0.0 1.6 0.00 0.00 0.00 45 1023.6
20260901220108 18 0 0.0 1.6 0.00 0.00 0.00 44 1023.6
20260901214606 18 119 1.6 4.8 0.00 0.00 0.00 44 1023.7
20260901213107 19 57 0.0 8.0 0.00 0.00 0.00 43 1023.6
20260901211603 20 65 4.8 6.4 0.00 0.00 0.00 42 1023.4
20260901210105 21 0 0.0 3.2 0.00 0.00 0.00 41 1023.4
20260901204606 21 0 0.0 9.7 0.00 0.00 0.00 39 1023.3
20260901203110 21 106 3.2 8.0 0.00 0.00 0.00 39 1023.0
20260901201612 22 0 0.0 0.0 0.00 0.00 0.00 39 1022.7
20260901200108 23 0 0.0 0.0 0.00 0.00 0.00 34 1022.6
20260901194608 24 147 0.0 1.6 0.00 0.00 0.00 33 1022.3
20260901193106 25 214 0.0 6.4 0.00 0.00 0.00 31 1022.0
20260901191605 26 243 1.6 4.8 0.00 0.00 0.00 31 1021.8
20260901190110 26 184 0.0 6.4 0.00 0.00 0.00 30 1021.6
20260901184601 27 235 1.6 8.0 0.00 0.00 0.00 29 1021.5
20260901183110 28 265 1.6 8.0 0.00 0.00 0.00 27 1021.3
20260901181605 28 248 4.8 11.3 0.00 0.00 0.00 26 1021.4
20260901180107 28 240 4.8 17.7 0.00 0.00 0.00 26 1021.4
20260901174604 28 347 9.7 19.3 0.00 0.00 0.00 25 1021.5
20260901173112 28 298 12.9 20.9 0.00 0.00 0.00 25 1021.4
20260901171620 28 275 9.7 24.1 0.00 0.00 0.00 25 1021.3
20260901170108 29 265 14.5 33.8 0.00 0.00 0.00 26 1021.2
20260901164635 30 257 12.9 25.7 0.00 0.00 0.00 26 1021.1
20260901163103 30 277 14.5 24.1 0.00 0.00 0.00 27 1021.1
20260901161608 30 264 12.9 27.4 0.00 0.00 0.00 26 1021.1
20260901160106 30 270 9.7 32.2 0.00 0.00 0.00 26 1021.0
20260901154605 30 288 14.5 27.4 0.00 0.00 0.00 28 1021.0
20260901153103 30 262 16.1 29.0 0.00 0.00 0.00 28 1021.1
20260901151605 30 247 8.0 27.4 0.00 0.00 0.00 29 1021.1
20260901150108 30 202 6.4 24.1 0.00 0.00 0.00 28 1021.1
20260901144606 30 267 9.7 22.5 0.00 0.00 0.00 30 1021.3
20260901143106 30 277 11.3 27.4 0.00 0.00 0.00 28 1021.4
20260901141610 30 199 12.9 29.0 0.00 0.00 0.00 29 1021.4
20260901140105 29 250 11.3 29.0 0.00 0.00 0.00 31 1021.5
20260901134604 29 199 17.7 27.4 0.00 0.00 0.00 31 1021.5
20260901133103 29 276 14.5 29.0 0.00 0.00 0.00 30 1021.7
20260901131608 29 246 11.3 27.4 0.00 0.00 0.00 30 1022.0
20260901124604 28 302 16.1 25.7 0.00 0.00 0.00 33 1021.9
20260901123102 28 186 16.1 29.0 0.00 0.00 0.00 34 1022.0
20260901121613 28 272 8.0 22.5 0.00 0.00 0.00 34 1022.2
20260901120124 27 107 6.4 22.5 0.00 0.00 0.00 41 1022.4
20260901114605 27 221 8.0 22.5 0.00 0.00 0.00 39 1022.6
20260901113105 27 268 6.4 24.1 0.00 0.00 0.00 40 1022.6
20260901111613 26 211 8.0 17.7 0.00 0.00 0.00 43 1022.8
20260901110106 26 285 8.0 17.7 0.00 0.00 0.00 44 1022.9
20260901104602 26 260 8.0 14.5 0.00 0.00 0.00 46 1023.1
20260901103124 25 229 4.8 16.1 0.00 0.00 0.00 47 1023.1
20260901101605 24 229 6.4 17.7 0.00 0.00 0.00 53 1023.2
20260901100107 24 244 4.8 14.5 0.00 0.00 0.00 54 1023.3
20260901094605 23 190 4.8 12.9 0.00 0.00 0.00 55 1023.4
20260901093132 22 214 6.4 14.5 0.00 0.00 0.00 58 1023.3
20260901091619 22 234 4.8 14.5 0.00 0.00 0.00 60 1023.3
20260901090108 22 231 6.4 12.9 0.00 0.00 0.00 61 1023.2
20260901084601 21 266 4.8 17.7 0.00 0.00 0.00 62 1023.1
20260901083109 21 264 3.2 11.3 0.00 0.00 0.00 63 1023.0
20260901081616 20 250 3.2 8.0 0.00 0.00 0.00 64 1022.9
20260901080123 20 331 0.0 1.6 0.00 0.00 0.00 62 1022.9
20260901074612 18 0 0.0 1.6 0.00 0.00 0.00 65 1022.9
20260901073115 17 64 1.6 4.8 0.00 0.00 0.00 68 1023.0
20260901071610 17 35 0.0 1.6 0.00 0.00 0.00 66 1023.2
20260901070107 16 0 0.0 1.6 0.00 0.00 0.00 68 1023.1
20260901064608 15 0 0.0 3.2 0.00 0.00 0.00 72 1023.0
20260901063106 15 0 0.0 0.0 0.00 0.00 0.00 70 1023.0
20260901061607 14 0 0.0 0.0 0.00 0.00 0.00 72 1022.9
20260901060111 13 0 0.0 0.0 0.00 0.00 0.00 74 1022.8
20260901054607 13 0 0.0 0.0 0.00 0.00 0.00 73 1022.5
20260901053124 13 0 0.0 0.0 0.00 0.00 0.00 73 1022.4
20260901051605 13 0 0.0 0.0 0.00 0.00 0.00 72 1022.4
20260901044605 15 0 0.0 0.0 0.00 0.00 0.00 71 1022.1
20260901043130 15 0 0.0 0.0 0.00 0.00 0.00 70 1022.1
20260901041611 15 0 0.0 0.0 0.00 0.00 0.00 69 1022.0
20260901040105 15 0 0.0 0.0 0.00 0.00 0.00 69 1022.0
20260901034608 16 0 0.0 1.6 0.00 0.00 0.00 68 1022.0
20260901033108 16 124 1.6 4.8 0.00 0.00 0.00 67 1022.1
20260901031605 16 0 0.0 4.8 0.00 0.00 0.00 67 1022.3
20260901030104 16 123 1.6 3.2 0.00 0.00 0.00 66 1022.2
20260901024608 16 122 0.0 3.2 0.00 0.00 0.00 65 1022.3
20260901023103 16 108 0.0 1.6 0.00 0.00 0.00 64 1022.4
20260901021609 17 0 0.0 3.2 0.00 0.00 0.00 64 1022.4
20260901020113 17 108 1.6 4.8 0.00 0.00 0.00 63 1022.3
20260901014606 17 0 0.0 1.6 0.00 0.00 0.00 62 1022.4
20260901013103 18 49 1.6 4.8 0.00 0.00 0.00 61 1022.4
20260901011621 18 89 1.6 11.3 0.00 0.00 0.00 60 1022.3
20260901010103 18 103 6.4 11.3 0.00 0.00 0.00 60 1022.4
20260901004605 18 84 1.6 9.7 0.00 0.00 0.00 60 1022.6
20260901003107 18 121 3.2 11.3 0.00 0.00 0.00 59 1022.6
20260901001607 18 59 6.4 16.1 0.00 0.00 0.00 59 1022.7
20260901000114 18 109 9.7 16.1 0.00 0.00 0.00 58 1022.8
20260831234618 18 85 8.0 17.7 0.00 0.00 0.00 58 1022.8
20260831233108 18 52 8.0 14.5 0.00 0.00 0.00 57 1022.8